Tampa Macdill AFB, FL

9:17 AM EDT on July 25, 2017 (GMT -0400)
MacDill Air Force Base

Weather History for KMCF - May, 2013

Change the Weather History Date:

Tuesday, May 28, 2013

  Actual Average Record
Temperature  
Mean Temperature 80 °F -  
Max Temperature 90 °F 87 °F 91 °F (2000)
Min Temperature 70 °F 70 °F 64 °F (2007)
Cooling Degree Days 15    
Growing Degree Days 30 (Base 50)    
Moisture  
Dew Point 73 °F    
Average Humidity 81    
Maximum Humidity 100    
Minimum Humidity 54    
Precipitation  
Precipitation 0.96 in - - ()
Sea Level Pressure  
Sea Level Pressure 30.09 in    
Wind  
Wind Speed 12 mph (ESE)    
Max Wind Speed 24 mph    
Max Gust Speed 36 mph    
Visibility 8 miles    
Events Fog , Rain , Thunderstorm    
Averages and records for this station are not official NWS values.
T = Trace of Precipitation, MM = Missing Value Source: NWS Daily Summary

Daily Weather History Graph

Daily Weather History Graph

Search for Another Location

Airport or City:

Trip Planner

Search our weather history database for the weather conditions in past years. The results will help you decide how hot, cold, wet, or windy it might be!

Date:

Astronomy

May. 28, 2013 Rise Set
Actual Time 6:35 AM EDT 8:19 PM EDT
Civil Twilight 6:08 AM EDT 8:46 PM EDT
Nautical Twilight 5:37 AM EDT 9:17 PM EDT
Astronomical Twilight 5:04 AM EDT 9:50 PM EDT
Moon 11:53 PM EDT (5/28) 10:14 AM EDT (5/28)
Length of Visible Light 14h 37m
Length of Day
13h 44m
Waning Gibbous, 83% of the Moon is Illuminated
May 28
Waning Gibbous
May 31
Last Quarter
Jun 8
New
Jun 16
First Quarter
Jun 23
Full

Hourly Weather History & Observations

Time (EDT) Temp. Heat Index Dew Point Humidity Pressure Visibility Wind Dir Wind Speed Gust Speed Precip Events Conditions
12:58 AM 73.0 °F - 69.3 °F 88% 30.16 in 10.0 mi ESE 9.2 mph - N/A   Clear
1:58 AM 72.5 °F - 69.8 °F 91% 30.14 in 10.0 mi East 9.2 mph - N/A   Clear
2:58 AM 71.8 °F - 70.0 °F 94% 30.12 in 10.0 mi ESE 10.4 mph - N/A   Clear
3:58 AM 71.6 °F - 70.2 °F 95% 30.10 in 10.0 mi East 8.1 mph - N/A   Clear
4:58 AM 71.2 °F - 70.2 °F 96% 30.09 in 10.0 mi East 9.2 mph - N/A   Clear
5:58 AM 70.9 °F - 70.3 °F 98% 30.10 in 10.0 mi East 10.4 mph - N/A   Clear
6:58 AM 70.9 °F - 70.2 °F 98% 30.12 in 10.0 mi East 12.7 mph - N/A   Clear
7:58 AM 73.0 °F - 70.7 °F 92% 30.12 in 10.0 mi East 12.7 mph - N/A   Clear
8:58 AM 77.5 °F - 71.2 °F 81% 30.13 in 10.0 mi ESE 16.1 mph - N/A   Clear
9:58 AM 81.0 °F 85.4 °F 72.3 °F 75% 30.12 in 10.0 mi ESE 10.4 mph 20.7 mph N/A   Partly Cloudy
10:23 AM 82.4 °F 88.2 °F 73.4 °F 74% 30.12 in 10.0 mi ESE 13.8 mph 19.6 mph N/A   Mostly Cloudy
10:48 AM 84.2 °F 89.6 °F 71.6 °F 66% 30.12 in 10.0 mi SE 13.8 mph - N/A   Scattered Clouds
10:58 AM 83.5 °F 89.4 °F 72.7 °F 70% 30.13 in 10.0 mi SE 13.8 mph - N/A   Scattered Clouds
11:08 AM 84.2 °F 90.9 °F 73.4 °F 70% 30.12 in 10.0 mi ESE 11.5 mph - N/A   Scattered Clouds
11:13 AM 84.2 °F 90.9 °F 73.4 °F 70% 30.12 in 10.0 mi ESE 9.2 mph - N/A   Mostly Cloudy
11:33 AM 84.2 °F 89.6 °F 71.6 °F 66% 30.12 in 10.0 mi SE 11.5 mph - N/A   Mostly Cloudy
11:58 AM 85.8 °F 92.2 °F 72.3 °F 64% 30.12 in 10.0 mi ESE 16.1 mph 21.9 mph N/A   Mostly Cloudy
12:58 PM 88.0 °F 94.7 °F 71.8 °F 59% 30.11 in 10.0 mi SE 12.7 mph 20.7 mph N/A   Scattered Clouds
1:13 PM 87.8 °F 93.8 °F 71.6 °F 58% 30.09 in 10.0 mi SE 13.8 mph - N/A   Mostly Cloudy
1:50 PM 89.6 °F 96.2 °F 71.6 °F 55% 30.07 in 10.0 mi East 17.3 mph 20.7 mph N/A   Mostly Cloudy
1:58 PM 90.1 °F 96.8 °F 71.6 °F 54% 30.08 in 10.0 mi East 13.8 mph 20.7 mph N/A   Mostly Cloudy
2:32 PM 89.6 °F 98.2 °F 73.4 °F 59% 30.07 in 7.0 mi ESE 17.3 mph - N/A Rain , Thunderstorm Thunderstorms and Rain
2:49 PM 84.2 °F 92.3 °F 75.2 °F 74% 30.07 in 10.0 mi ESE 8.1 mph - N/A   Light Drizzle
2:50 PM 84.2 °F 92.3 °F 75.2 °F 74% 30.07 in 10.0 mi ESE 8.1 mph - N/A   Mostly Cloudy
2:58 PM 83.5 °F 90.3 °F 74.1 °F 73% 30.07 in 10.0 mi ESE 10.4 mph - 0.01 in   Scattered Clouds
3:01 PM 84.2 °F 89.6 °F 71.6 °F 66% 30.06 in 10.0 mi SE 10.4 mph - N/A   Light Drizzle
3:12 PM 84.2 °F 89.6 °F 71.6 °F 66% 30.06 in 10.0 mi ESE 15.0 mph 21.9 mph N/A   Partly Cloudy
3:58 PM 88.5 °F 94.4 °F 71.1 °F 56% 30.05 in 10.0 mi ESE 16.1 mph 24.2 mph 0.00 in   Clear
4:50 PM 89.6 °F 96.2 °F 71.6 °F 55% 30.03 in 10.0 mi SE 18.4 mph 21.9 mph N/A   Scattered Clouds
4:52 PM 87.8 °F 95.6 °F 73.4 °F 62% 30.04 in 7.0 mi SE 24.2 mph 31.1 mph N/A Rain Light Rain
4:56 PM 86.0 °F 96.9 °F 77.0 °F 74% 30.06 in 0.8 mi SE 20.7 mph 35.7 mph N/A Rain , Thunderstorm Heavy Thunderstorms and Rain
4:58 PM 86.0 °F 96.9 °F 77.0 °F 74% 30.07 in 0.8 mi SE 17.3 mph 35.7 mph 0.14 in Rain , Thunderstorm Heavy Thunderstorms and Rain
5:03 PM 78.8 °F - 73.4 °F 83% 30.06 in 0.5 mi SE 6.9 mph 35.7 mph N/A Rain , Thunderstorm Heavy Thunderstorms and Rain
5:08 PM 77.0 °F - 75.2 °F 94% 30.05 in 0.5 mi East 8.1 mph - N/A Fog , Rain , Thunderstorm Heavy Thunderstorms and Rain
5:13 PM 75.2 °F - 73.4 °F 94% 30.06 in 0.8 mi SE 18.4 mph 24.2 mph N/A Rain , Thunderstorm Heavy Thunderstorms and Rain
5:18 PM 75.2 °F - 73.4 °F 94% 30.07 in 1.8 mi SE 18.4 mph 33.4 mph N/A Rain , Thunderstorm Thunderstorms and Rain
5:23 PM 75.2 °F - 73.4 °F 94% 30.07 in 4.0 mi SE 20.7 mph 33.4 mph N/A Rain , Thunderstorm Light Thunderstorms and Rain
5:33 PM 73.4 °F - 73.4 °F 100% 30.06 in 1.8 mi SE 16.1 mph 27.6 mph N/A Rain , Thunderstorm Heavy Thunderstorms and Rain
5:43 PM 73.4 °F - 71.6 °F 94% 30.06 in 3.0 mi East 13.8 mph 21.9 mph N/A Rain , Thunderstorm Thunderstorms and Rain
5:55 PM 73.4 °F - 73.4 °F 100% 30.05 in 9.0 mi East 10.4 mph - N/A Rain Light Rain
5:58 PM 73.6 °F - 73.2 °F 99% 30.06 in 9.0 mi East 10.4 mph - 0.81 in Rain Light Rain
6:12 PM 75.2 °F - 75.2 °F 100% 30.05 in 10.0 mi East 12.7 mph - N/A   Scattered Clouds
6:31 PM 75.2 °F - 75.2 °F 100% 30.04 in 10.0 mi ESE 16.1 mph - N/A   Light Drizzle
6:52 PM 77.0 °F - 75.2 °F 94% 30.04 in 10.0 mi ESE 12.7 mph - N/A   Clear
6:58 PM 76.6 °F - 74.7 °F 94% 30.05 in 10.0 mi East 10.4 mph - 0.00 in   Clear
7:58 PM 76.6 °F - 74.5 °F 93% 30.08 in 10.0 mi ESE 11.5 mph - N/A   Clear
8:58 PM 75.7 °F - 72.0 °F 88% 30.10 in 10.0 mi ESE 9.2 mph - N/A   Overcast
9:58 PM 74.1 °F - 72.0 °F 93% 30.10 in 10.0 mi ESE 11.5 mph - N/A   Clear
10:58 PM 74.3 °F - 72.7 °F 95% 30.11 in 10.0 mi ESE 10.4 mph - N/A   Partly Cloudy
11:58 PM 73.8 °F - 72.9 °F 97% 30.11 in 10.0 mi East 11.5 mph - N/A   Clear